| time (UTC) | temp F | wind direction | speed MPH | gust MPH | rain 1hr in | rain 24hr in | rain mn in | humidity % | barometer mb |
| 20260902072027 | 76 | 169 | 0.0 | 0.0 | 0.00 | 0.00 | 0.00 | 99 | 1014.2 |
| 20260902071525 | 76 | 170 | 0.0 | 0.0 | 0.00 | 0.00 | 0.00 | 99 | 1014.3 |
| 20260902071022 | 76 | 170 | 0.0 | 0.0 | 0.00 | 0.00 | 0.00 | 99 | 1014.3 |
| 20260902070517 | 76 | 169 | 0.0 | 0.0 | 0.00 | 0.00 | 0.00 | 99 | 1014.2 |
| 20260902070017 | 77 | 169 | 0.0 | 0.0 | 0.00 | 0.00 | 0.00 | 99 | 1014.3 |
| 20260902065511 | 76 | 176 | 0.0 | 0.0 | 0.00 | 0.00 | 0.00 | 99 | 1014.2 |
| 20260902065006 | 76 | 169 | 0.0 | 0.0 | 0.00 | 0.00 | 0.00 | 99 | 1014.4 |
| 20260902064456 | 76 | 176 | 0.0 | 0.0 | 0.00 | 0.00 | 0.00 | 99 | 1014.4 |
| 20260902063952 | 76 | 176 | 0.0 | 0.0 | 0.00 | 0.00 | 0.00 | 99 | 1014.4 |
| 20260902063451 | 76 | 176 | 0.0 | 0.0 | 0.00 | 0.00 | 0.00 | 99 | 1014.4 |
| 20260902062947 | 76 | 172 | 0.0 | 0.0 | 0.00 | 0.00 | 0.00 | 99 | 1014.5 |
| 20260902062446 | 76 | 172 | 0.0 | 0.0 | 0.00 | 0.00 | 0.00 | 99 | 1014.5 |
| 20260902061941 | 76 | 169 | 0.0 | 0.0 | 0.00 | 0.00 | 0.00 | 99 | 1014.7 |
| 20260902061436 | 77 | 169 | 0.0 | 0.0 | 0.00 | 0.00 | 0.00 | 99 | 1014.7 |
| 20260902060932 | 76 | 169 | 0.0 | 0.0 | 0.00 | 0.00 | 0.00 | 99 | 1014.6 |
| 20260902060428 | 76 | 172 | 0.0 | 0.0 | 0.00 | 0.00 | 0.00 | 99 | 1014.6 |
| 20260902055924 | 76 | 176 | 0.0 | 0.0 | 0.00 | 0.00 | 0.00 | 99 | 1014.6 |
| 20260902055420 | 76 | 172 | 0.0 | 0.0 | 0.00 | 0.00 | 0.00 | 99 | 1014.6 |
| 20260902054915 | 76 | 165 | 0.0 | 0.0 | 0.00 | 0.00 | 0.00 | 99 | 1014.7 |
| 20260902054410 | 76 | 169 | 0.0 | 0.0 | 0.00 | 0.00 | 0.00 | 99 | 1014.6 |
| 20260902053905 | 76 | 172 | 0.0 | 0.0 | 0.00 | 0.00 | 0.00 | 99 | 1014.7 |
| 20260902053401 | 76 | 169 | 0.0 | 0.0 | 0.00 | 0.00 | 0.00 | 99 | 1014.8 |
| 20260902052859 | 76 | 169 | 0.0 | 0.0 | 0.00 | 0.00 | 0.00 | 99 | 1014.9 |
| 20260902052354 | 76 | 169 | 0.0 | 0.0 | 0.00 | 0.00 | 0.00 | 99 | 1014.8 |
| 20260902051849 | 76 | 169 | 0.0 | 0.0 | 0.00 | 0.00 | 0.00 | 99 | 1015.0 |
| 20260902051344 | 77 | 165 | 0.0 | 0.0 | 0.00 | 0.00 | 0.00 | 99 | 1014.8 |
| 20260902050844 | 77 | 161 | 0.0 | 0.0 | 0.00 | 0.00 | 0.00 | 99 | 1015.0 |
| 20260902050342 | 77 | 165 | 0.0 | 0.0 | 0.00 | 0.00 | 0.00 | 99 | 1014.9 |
| 20260902045838 | 76 | 169 | 0.0 | 0.0 | 0.00 | 0.00 | 0.00 | 99 | 1014.8 |
| 20260902045334 | 76 | 169 | 0.0 | 0.0 | 0.00 | 0.00 | 0.00 | 99 | 1014.8 |
| 20260902044831 | 77 | 169 | 0.0 | 0.0 | 0.00 | 0.00 | 0.00 | 99 | 1014.8 |
| 20260902044326 | 77 | 169 | 0.0 | 0.0 | 0.00 | 0.00 | 0.00 | 99 | 1014.9 |
| 20260902043827 | 77 | 162 | 0.0 | 0.0 | 0.00 | 0.00 | 0.00 | 99 | 1014.9 |
| 20260902043321 | 77 | 162 | 0.0 | 0.0 | 0.00 | 0.00 | 0.00 | 99 | 1014.9 |
| 20260902042820 | 77 | 161 | 0.0 | 0.0 | 0.00 | 0.00 | 0.00 | 99 | 1014.9 |
| 20260902042315 | 77 | 165 | 0.0 | 0.0 | 0.00 | 0.00 | 0.00 | 99 | 1015.0 |
| 20260902041811 | 77 | 162 | 0.0 | 0.0 | 0.00 | 0.00 | 0.00 | 99 | 1014.9 |
| 20260902041310 | 77 | 165 | 0.0 | 0.0 | 0.00 | 0.00 | 0.00 | 99 | 1015.2 |
| 20260902040809 | 77 | 158 | 0.0 | 0.0 | 0.00 | 0.00 | 0.00 | 99 | 1015.0 |
| 20260902040305 | 77 | 165 | 0.0 | 0.0 | 0.00 | 0.00 | 0.00 | 99 | 1014.8 |
| 20260902035803 | 77 | 163 | 0.0 | 0.0 | 0.00 | 0.19 | 0.19 | 99 | 1015.0 |
| 20260902035259 | 77 | 156 | 0.0 | 0.0 | 0.00 | 0.19 | 0.19 | 99 | 1015.5 |
| 20260902034758 | 77 | 162 | 0.0 | 0.0 | 0.00 | 0.19 | 0.19 | 99 | 1015.4 |
| 20260902034253 | 77 | 162 | 0.0 | 0.0 | 0.00 | 0.19 | 0.19 | 99 | 1015.2 |
| 20260902033751 | 77 | 163 | 0.0 | 0.0 | 0.00 | 0.19 | 0.19 | 99 | 1015.3 |
| 20260902033247 | 77 | 156 | 0.0 | 0.0 | 0.00 | 0.19 | 0.19 | 99 | 1015.6 |
| 20260902032745 | 77 | 163 | 0.0 | 0.0 | 0.00 | 0.19 | 0.19 | 99 | 1015.8 |
| 20260902032241 | 77 | 162 | 0.0 | 0.0 | 0.00 | 0.19 | 0.19 | 99 | 1015.6 |
| 20260902031740 | 77 | 162 | 0.0 | 0.0 | 0.00 | 0.19 | 0.19 | 99 | 1015.7 |
| 20260902031236 | 77 | 162 | 0.0 | 0.0 | 0.00 | 0.19 | 0.19 | 99 | 1015.7 |
| 20260902030731 | 77 | 157 | 0.0 | 0.0 | 0.00 | 0.19 | 0.19 | 99 | 1015.4 |
| 20260902030226 | 77 | 159 | 0.0 | 0.0 | 0.00 | 0.19 | 0.19 | 99 | 1015.6 |
| 20260902025725 | 77 | 158 | 0.0 | 0.0 | 0.00 | 0.19 | 0.19 | 99 | 1015.7 |
| 20260902025220 | 77 | 163 | 0.0 | 0.0 | 0.00 | 0.19 | 0.19 | 99 | 1015.7 |
| 20260902024715 | 77 | 160 | 0.0 | 0.0 | 0.00 | 0.19 | 0.19 | 99 | 1015.8 |
| 20260902024210 | 77 | 158 | 0.0 | 0.0 | 0.00 | 0.19 | 0.19 | 99 | 1015.4 |
| 20260902023706 | 77 | 160 | 0.0 | 0.0 | 0.00 | 0.19 | 0.19 | 99 | 1015.5 |
| 20260902023201 | 77 | 160 | 0.0 | 0.0 | 0.00 | 0.19 | 0.19 | 99 | 1015.4 |
| 20260902022701 | 77 | 157 | 0.0 | 0.0 | 0.00 | 0.19 | 0.19 | 99 | 1015.5 |
| 20260902022156 | 77 | 151 | 0.0 | 0.0 | 0.00 | 0.19 | 0.19 | 99 | 1015.4 |
| 20260902021652 | 77 | 156 | 0.0 | 0.0 | 0.00 | 0.19 | 0.19 | 99 | 1015.5 |
| 20260902021146 | 77 | 157 | 0.0 | 0.0 | 0.00 | 0.19 | 0.19 | 99 | 1015.7 |
| 20260902020642 | 77 | 160 | 0.0 | 0.0 | 0.00 | 0.19 | 0.19 | 99 | 1015.4 |
| 20260902020138 | 77 | 159 | 0.0 | 0.0 | 0.00 | 0.19 | 0.19 | 99 | 1015.3 |
| 20260902015633 | 77 | 159 | 0.0 | 0.0 | 0.00 | 0.19 | 0.19 | 99 | 1015.5 |
| 20260902015130 | 77 | 156 | 0.0 | 0.0 | 0.00 | 0.19 | 0.19 | 99 | 1015.3 |
| 20260902014625 | 77 | 159 | 0.0 | 0.0 | 0.00 | 0.19 | 0.19 | 99 | 1015.2 |
| 20260902014120 | 77 | 159 | 0.0 | 0.0 | 0.00 | 0.19 | 0.19 | 99 | 1015.2 |
| 20260902013620 | 78 | 159 | 0.0 | 0.0 | 0.00 | 0.19 | 0.19 | 99 | 1015.2 |
| 20260902013116 | 78 | 159 | 0.0 | 0.0 | 0.00 | 0.19 | 0.19 | 99 | 1015.0 |
| 20260902012611 | 78 | 157 | 0.0 | 0.0 | 0.05 | 0.19 | 0.19 | 99 | 1015.0 |
| 20260902012106 | 78 | 161 | 0.0 | 0.0 | 0.05 | 0.19 | 0.19 | 99 | 1014.9 |
| 20260902011602 | 78 | 156 | 0.0 | 0.0 | 0.00 | 0.18 | 0.18 | 99 | 1014.9 |
| 20260902011101 | 78 | 155 | 0.0 | 0.0 | 0.00 | 0.18 | 0.18 | 99 | 1015.1 |
| 20260902010601 | 78 | 177 | 0.0 | 0.0 | 0.00 | 0.18 | 0.18 | 99 | 1015.0 |
| 20260902010057 | 78 | 177 | 0.0 | 0.0 | 0.07 | 0.18 | 0.18 | 99 | 1015.1 |
| 20260902005554 | 78 | 177 | 0.0 | 0.0 | 0.07 | 0.18 | 0.18 | 99 | 1014.9 |
| 20260902005051 | 78 | 177 | 0.0 | 0.0 | 0.00 | 0.17 | 0.17 | 99 | 1015.0 |
| 20260902004549 | 78 | 178 | 0.0 | 0.0 | 0.05 | 0.17 | 0.17 | 99 | 1015.0 |
| 20260902004045 | 78 | 179 | 0.0 | 0.0 | 0.05 | 0.17 | 0.17 | 99 | 1014.8 |
| 20260902003541 | 78 | 179 | 0.0 | 0.0 | 0.00 | 0.16 | 0.16 | 99 | 1015.0 |
| 20260902003036 | 78 | 179 | 0.0 | 0.0 | 0.00 | 0.16 | 0.16 | 99 | 1014.9 |
| 20260902002532 | 78 | 179 | 0.0 | 0.0 | 0.00 | 0.16 | 0.16 | 99 | 1014.9 |
| 20260902002026 | 78 | 179 | 0.0 | 0.0 | 0.00 | 0.16 | 0.16 | 99 | 1014.9 |
| 20260902001521 | 78 | 180 | 0.0 | 0.0 | 0.07 | 0.16 | 0.16 | 99 | 1014.9 |
| 20260902001016 | 78 | 180 | 0.0 | 0.0 | 0.07 | 0.16 | 0.16 | 99 | 1014.9 |
| 20260902000511 | 78 | 179 | 0.0 | 0.0 | 0.00 | 0.15 | 0.15 | 99 | 1014.8 |
| 20260902000006 | 79 | 180 | 0.0 | 0.0 | 0.00 | 0.15 | 0.15 | 99 | 1015.0 |
| 20260901235501 | 79 | 187 | 0.0 | 0.0 | 0.00 | 0.15 | 0.15 | 99 | 1014.9 |
| 20260901234956 | 79 | 182 | 0.0 | 0.0 | 0.05 | 0.15 | 0.15 | 99 | 1015.1 |
| 20260901234455 | 80 | 239 | 0.0 | 0.0 | 0.05 | 0.15 | 0.15 | 99 | 1015.1 |
| 20260901233950 | 80 | 242 | 0.0 | 0.0 | 0.07 | 0.14 | 0.14 | 99 | 1014.6 |
| 20260901233445 | 80 | 201 | 0.0 | 0.0 | 0.12 | 0.14 | 0.14 | 99 | 1014.8 |
| 20260901232941 | 79 | 154 | 0.0 | 0.0 | 0.05 | 0.13 | 0.13 | 99 | 1014.5 |
| 20260901232436 | 79 | 162 | 0.0 | 0.0 | 0.12 | 0.13 | 0.13 | 99 | 1014.6 |
| 20260901231931 | 79 | 163 | 0.0 | 0.0 | 0.14 | 0.12 | 0.12 | 99 | 1014.4 |
| 20260901231427 | 79 | 159 | 0.0 | 0.0 | 0.07 | 0.11 | 0.11 | 98 | 1014.5 |
| 20260901230924 | 79 | 163 | 0.0 | 0.0 | 0.05 | 0.10 | 0.10 | 98 | 1014.7 |
| 20260901230423 | 79 | 182 | 0.0 | 0.0 | 0.05 | 0.10 | 0.10 | 98 | 1014.8 |
| 20260901225919 | 80 | 127 | 0.0 | 0.0 | 0.00 | 0.09 | 0.09 | 98 | 1014.9 |
| 20260901225419 | 80 | 135 | 0.0 | 0.0 | 0.00 | 0.09 | 0.09 | 98 | 1015.1 |
| 20260901224913 | 80 | 152 | 0.0 | 0.0 | 0.00 | 0.09 | 0.09 | 98 | 1014.9 |
| 20260901224410 | 80 | 149 | 0.0 | 0.0 | 0.00 | 0.09 | 0.09 | 97 | 1014.6 |
| 20260901223906 | 80 | 148 | 0.0 | 0.0 | 0.07 | 0.09 | 0.09 | 97 | 1014.7 |
| 20260901223401 | 80 | 144 | 0.0 | 0.0 | 0.07 | 0.09 | 0.09 | 97 | 1014.8 |
| 20260901222856 | 80 | 164 | 0.0 | 0.0 | 0.00 | 0.08 | 0.08 | 97 | 1014.9 |
| 20260901222353 | 80 | 157 | 0.0 | 0.0 | 0.00 | 0.08 | 0.08 | 97 | 1015.0 |
| 20260901221848 | 80 | 241 | 0.0 | 0.0 | 0.00 | 0.08 | 0.08 | 96 | 1015.0 |
| 20260901221344 | 80 | 256 | 0.0 | 0.0 | 0.00 | 0.08 | 0.08 | 96 | 1014.6 |
| 20260901220844 | 81 | 212 | 0.0 | 0.0 | 0.00 | 0.08 | 0.08 | 96 | 1014.6 |
| 20260901220343 | 81 | 100 | 0.0 | 0.0 | 0.00 | 0.08 | 0.08 | 96 | 1014.6 |
| 20260901215842 | 81 | 156 | 0.0 | 0.0 | 0.00 | 0.08 | 0.08 | 95 | 1014.7 |
| 20260901215341 | 81 | 157 | 0.0 | 0.0 | 0.00 | 0.08 | 0.08 | 94 | 1014.6 |
| 20260901214839 | 82 | 137 | 0.0 | 0.0 | 0.00 | 0.08 | 0.08 | 93 | 1014.7 |
| 20260901214339 | 81 | 149 | 0.0 | 0.0 | 0.00 | 0.08 | 0.08 | 93 | 1014.3 |
| 20260901213833 | 81 | 158 | 0.0 | 0.0 | 0.00 | 0.08 | 0.08 | 93 | 1014.2 |
| 20260901213333 | 82 | 151 | 0.0 | 0.0 | 0.00 | 0.08 | 0.08 | 93 | 1014.3 |
| 20260901212828 | 82 | 125 | 0.0 | 0.0 | 0.00 | 0.08 | 0.08 | 92 | 1014.2 |
| 20260901212324 | 83 | 141 | 0.0 | 0.0 | 0.00 | 0.08 | 0.08 | 91 | 1014.3 |
| 20260901211820 | 83 | 169 | 0.0 | 0.0 | 0.00 | 0.08 | 0.08 | 89 | 1014.4 |
| 20260901211316 | 83 | 65 | 0.0 | 0.0 | 0.00 | 0.08 | 0.08 | 90 | 1014.1 |
| 20260901210810 | 83 | 135 | 1.0 | 6.0 | 0.00 | 0.08 | 0.08 | 92 | 1014.1 |
| 20260901210307 | 82 | 162 | 0.0 | 0.0 | 0.00 | 0.08 | 0.08 | 93 | 1014.1 |
| 20260901205803 | 82 | 160 | 0.0 | 0.0 | 0.00 | 0.08 | 0.08 | 94 | 1014.0 |
| 20260901205306 | 82 | 166 | 0.0 | 0.0 | 0.00 | 0.08 | 0.08 | 95 | 1013.8 |
| 20260901204758 | 82 | 159 | 0.0 | 0.0 | 0.00 | 0.08 | 0.08 | 96 | 1013.6 |
| 20260901204254 | 82 | 37 | 0.0 | 1.0 | 0.00 | 0.08 | 0.08 | 97 | 1013.9 |
| 20260901203754 | 82 | 150 | 0.0 | 0.0 | 0.00 | 0.08 | 0.08 | 97 | 1013.6 |
| 20260901203254 | 81 | 136 | 0.0 | 0.0 | 0.05 | 0.08 | 0.08 | 97 | 1013.6 |
| 20260901202748 | 81 | 158 | 0.0 | 0.0 | 0.05 | 0.08 | 0.08 | 96 | 1013.6 |
| 20260901202243 | 81 | 158 | 0.0 | 0.0 | 0.00 | 0.07 | 0.07 | 95 | 1013.7 |
| 20260901201739 | 81 | 209 | 0.0 | 0.0 | 0.00 | 0.07 | 0.07 | 94 | 1013.7 |
| 20260901201233 | 81 | 182 | 0.0 | 0.0 | 0.24 | 0.07 | 0.07 | 92 | 1013.9 |
| 20260901200732 | 83 | 210 | 0.0 | 0.0 | 0.42 | 0.07 | 0.07 | 90 | 1013.9 |
| 20260901200228 | 88 | 204 | 0.0 | 2.0 | 0.24 | 0.04 | 0.04 | 83 | 1014.1 |
| 20260901195726 | 90 | 101 | 0.0 | 0.0 | 0.00 | 0.00 | 0.00 | 76 | 1013.7 |
| 20260901195220 | 92 | 168 | 0.0 | 0.0 | 0.00 | 0.00 | 0.00 | 73 | 1013.9 |
| 20260901194716 | 94 | 140 | 0.0 | 0.0 | 0.00 | 0.00 | 0.00 | 70 | 1013.7 |
| 20260901194210 | 92 | 188 | 0.0 | 0.0 | 0.00 | 0.00 | 0.00 | 71 | 1013.5 |
| 20260901193707 | 91 | 154 | 0.0 | 0.0 | 0.00 | 0.00 | 0.00 | 75 | 1013.9 |
| 20260901193200 | 91 | 160 | 0.0 | 0.0 | 0.00 | 0.00 | 0.00 | 74 | 1013.8 |
| 20260901192655 | 91 | 169 | 0.0 | 0.0 | 0.00 | 0.00 | 0.00 | 74 | 1013.8 |
| 20260901192150 | 91 | 152 | 0.0 | 0.0 | 0.00 | 0.00 | 0.00 | 75 | 1014.1 |
| 20260901191646 | 90 | 159 | 0.0 | 0.0 | 0.00 | 0.00 | 0.00 | 74 | 1014.1 |
| 20260901191142 | 91 | 140 | 0.0 | 0.0 | 0.00 | 0.00 | 0.00 | 74 | 1014.0 |
| 20260901190638 | 92 | 148 | 0.0 | 0.0 | 0.00 | 0.00 | 0.00 | 71 | 1013.9 |
| 20260901190137 | 92 | 141 | 0.0 | 0.0 | 0.00 | 0.00 | 0.00 | 71 | 1014.2 |
| 20260901185635 | 93 | 196 | 0.0 | 0.0 | 0.00 | 0.00 | 0.00 | 69 | 1014.5 |
| 20260901185134 | 93 | 179 | 0.0 | 0.0 | 0.00 | 0.00 | 0.00 | 71 | 1014.2 |
| 20260901184630 | 92 | 275 | 0.0 | 0.0 | 0.00 | 0.00 | 0.00 | 74 | 1014.5 |
| 20260901184125 | 92 | 88 | 0.0 | 0.0 | 0.00 | 0.00 | 0.00 | 69 | 1014.6 |
| 20260901183620 | 91 | 283 | 0.0 | 0.0 | 0.00 | 0.00 | 0.00 | 69 | 1014.5 |
| 20260901183115 | 92 | 198 | 0.0 | 0.0 | 0.00 | 0.00 | 0.00 | 71 | 1014.6 |
| 20260901182611 | 93 | 181 | 0.0 | 0.0 | 0.00 | 0.00 | 0.00 | 66 | 1014.9 |
| 20260901182111 | 93 | 151 | 0.0 | 0.0 | 0.00 | 0.00 | 0.00 | 67 | 1014.7 |
| 20260901181610 | 92 | 150 | 0.0 | 0.0 | 0.00 | 0.00 | 0.00 | 71 | 1015.0 |
| 20260901181110 | 92 | 226 | 0.0 | 0.0 | 0.00 | 0.00 | 0.00 | 72 | 1014.8 |
| 20260901180604 | 93 | 109 | 0.0 | 0.0 | 0.00 | 0.00 | 0.00 | 72 | 1015.0 |
| 20260901180058 | 93 | 308 | 0.0 | 0.0 | 0.00 | 0.00 | 0.00 | 71 | 1015.1 |
| 20260901175552 | 92 | 121 | 0.0 | 0.0 | 0.00 | 0.00 | 0.00 | 70 | 1015.4 |
| 20260901175052 | 92 | 180 | 0.0 | 0.0 | 0.00 | 0.00 | 0.00 | 73 | 1015.2 |
| 20260901174548 | 90 | 165 | 0.0 | 0.0 | 0.00 | 0.00 | 0.00 | 72 | 1015.5 |
| 20260901174043 | 91 | 149 | 0.0 | 0.0 | 0.00 | 0.00 | 0.00 | 75 | 1015.7 |
| 20260901173538 | 93 | 162 | 0.0 | 0.0 | 0.00 | 0.00 | 0.00 | 70 | 1015.7 |
| 20260901173034 | 92 | 63 | 0.0 | 0.0 | 0.00 | 0.00 | 0.00 | 71 | 1015.9 |
| 20260901172530 | 92 | 115 | 0.0 | 0.0 | 0.00 | 0.00 | 0.00 | 73 | 1015.6 |
| 20260901172027 | 93 | 135 | 0.0 | 0.0 | 0.00 | 0.00 | 0.00 | 70 | 1015.9 |
| 20260901171527 | 92 | 163 | 0.0 | 0.0 | 0.00 | 0.00 | 0.00 | 69 | 1015.8 |
| 20260901171026 | 92 | 143 | 0.0 | 0.0 | 0.00 | 0.00 | 0.00 | 73 | 1015.9 |
| 20260901170525 | 92 | 157 | 0.0 | 0.0 | 0.00 | 0.00 | 0.00 | 72 | 1015.9 |
| 20260901170021 | 91 | 63 | 0.0 | 0.0 | 0.00 | 0.00 | 0.00 | 72 | 1015.9 |
| 20260901165514 | 92 | 182 | 0.0 | 0.0 | 0.00 | 0.00 | 0.00 | 71 | 1015.7 |
| 20260901165010 | 92 | 145 | 0.0 | 0.0 | 0.00 | 0.00 | 0.00 | 70 | 1015.9 |
| 20260901164506 | 90 | 131 | 0.0 | 0.0 | 0.00 | 0.00 | 0.00 | 75 | 1016.0 |
| 20260901164001 | 88 | 51 | 0.0 | 0.0 | 0.00 | 0.00 | 0.00 | 78 | 1016.2 |
| 20260901163456 | 89 | 204 | 0.0 | 0.0 | 0.00 | 0.00 | 0.00 | 77 | 1015.9 |
| 20260901162954 | 89 | 167 | 0.0 | 0.0 | 0.00 | 0.00 | 0.00 | 78 | 1016.3 |
| 20260901162450 | 89 | 222 | 0.0 | 0.0 | 0.00 | 0.00 | 0.00 | 77 | 1016.3 |
| 20260901161949 | 89 | 259 | 0.0 | 0.0 | 0.00 | 0.00 | 0.00 | 77 | 1016.3 |
| 20260901161448 | 88 | 232 | 0.0 | 0.0 | 0.00 | 0.00 | 0.00 | 78 | 1016.5 |
| 20260901160943 | 87 | 194 | 0.0 | 0.0 | 0.00 | 0.00 | 0.00 | 81 | 1016.7 |
| 20260901160440 | 87 | 270 | 0.0 | 0.0 | 0.00 | 0.00 | 0.00 | 81 | 1016.7 |
| 20260901155939 | 88 | 117 | 0.0 | 0.0 | 0.00 | 0.00 | 0.00 | 83 | 1016.7 |
| 20260901155438 | 89 | 223 | 0.0 | 0.0 | 0.00 | 0.00 | 0.00 | 80 | 1016.7 |
| 20260901154935 | 88 | 180 | 0.0 | 0.0 | 0.00 | 0.00 | 0.00 | 82 | 1016.6 |
| 20260901154434 | 87 | 304 | 0.0 | 0.0 | 0.00 | 0.00 | 0.00 | 84 | 1016.8 |
| 20260901153929 | 88 | 217 | 0.0 | 0.0 | 0.00 | 0.00 | 0.00 | 83 | 1016.8 |
| 20260901153424 | 89 | 180 | 0.0 | 0.0 | 0.00 | 0.00 | 0.00 | 81 | 1016.9 |
| 20260901152918 | 88 | 175 | 0.0 | 0.0 | 0.00 | 0.00 | 0.00 | 81 | 1017.0 |
| 20260901152413 | 89 | 149 | 0.0 | 0.0 | 0.00 | 0.00 | 0.00 | 81 | 1017.0 |
| 20260901151913 | 88 | 172 | 0.0 | 0.0 | 0.00 | 0.00 | 0.00 | 82 | 1016.9 |
| 20260901151413 | 87 | 153 | 0.0 | 0.0 | 0.00 | 0.00 | 0.00 | 86 | 1016.7 |
| 20260901150912 | 86 | 157 | 0.0 | 0.0 | 0.00 | 0.00 | 0.00 | 86 | 1016.7 |
| 20260901150410 | 87 | 90 | 0.0 | 0.0 | 0.00 | 0.00 | 0.00 | 85 | 1016.7 |
| 20260901145907 | 87 | 172 | 0.0 | 0.0 | 0.00 | 0.00 | 0.00 | 85 | 1016.7 |
| 20260901145407 | 87 | 76 | 0.0 | 0.0 | 0.00 | 0.00 | 0.00 | 85 | 1016.8 |
| 20260901144902 | 87 | 121 | 0.0 | 0.0 | 0.00 | 0.00 | 0.00 | 84 | 1016.6 |
| 20260901144358 | 89 | 158 | 0.0 | 0.0 | 0.00 | 0.00 | 0.00 | 83 | 1016.7 |
| 20260901143853 | 87 | 157 | 0.0 | 0.0 | 0.00 | 0.00 | 0.00 | 85 | 1016.4 |
| 20260901143349 | 87 | 179 | 0.0 | 0.0 | 0.00 | 0.00 | 0.00 | 85 | 1016.4 |
| 20260901142846 | 86 | 173 | 0.0 | 0.0 | 0.00 | 0.00 | 0.00 | 87 | 1016.7 |
| 20260901142344 | 85 | 143 | 0.0 | 0.0 | 0.00 | 0.00 | 0.00 | 91 | 1016.4 |
| 20260901141839 | 83 | 131 | 0.0 | 0.0 | 0.00 | 0.00 | 0.00 | 96 | 1016.5 |
| 20260901141335 | 82 | 162 | 0.0 | 0.0 | 0.00 | 0.00 | 0.00 | 99 | 1016.5 |
| 20260901140834 | 81 | 138 | 0.0 | 0.0 | 0.00 | 0.00 | 0.00 | 99 | 1016.2 |
| 20260901140332 | 80 | 159 | 0.0 | 0.0 | 0.00 | 0.00 | 0.00 | 99 | 1016.4 |
| 20260901135827 | 81 | 179 | 0.0 | 0.0 | 0.00 | 0.00 | 0.00 | 99 | 1016.4 |
| 20260901135322 | 80 | 164 | 0.0 | 0.0 | 0.00 | 0.00 | 0.00 | 99 | 1016.4 |
| 20260901134818 | 79 | 154 | 0.0 | 0.0 | 0.00 | 0.00 | 0.00 | 99 | 1016.3 |
| 20260901134313 | 79 | 115 | 0.0 | 0.0 | 0.00 | 0.00 | 0.00 | 99 | 1016.5 |
| 20260901133807 | 78 | 102 | 0.0 | 0.0 | 0.00 | 0.00 | 0.00 | 99 | 1016.5 |
| 20260901133306 | 78 | 167 | 0.0 | 0.0 | 0.00 | 0.00 | 0.00 | 99 | 1016.3 |
| 20260901132804 | 79 | 210 | 0.0 | 0.0 | 0.00 | 0.00 | 0.00 | 99 | 1016.2 |
| 20260901132300 | 78 | 159 | 0.0 | 0.0 | 0.00 | 0.00 | 0.00 | 99 | 1016.1 |
| 20260901131754 | 78 | 153 | 0.0 | 0.0 | 0.00 | 0.00 | 0.00 | 99 | 1016.2 |
| 20260901131254 | 78 | 139 | 0.0 | 0.0 | 0.00 | 0.00 | 0.00 | 99 | 1016.1 |
| 20260901130749 | 78 | 165 | 0.0 | 0.0 | 0.00 | 0.00 | 0.00 | 99 | 1016.2 |
| 20260901130249 | 78 | 159 | 0.0 | 0.0 | 0.00 | 0.00 | 0.00 | 99 | 1016.1 |
| 20260901125746 | 78 | 82 | 0.0 | 0.0 | 0.00 | 0.00 | 0.00 | 99 | 1015.9 |
| 20260901125241 | 78 | 132 | 0.0 | 0.0 | 0.00 | 0.00 | 0.00 | 99 | 1015.9 |
| 20260901124736 | 78 | 158 | 0.0 | 0.0 | 0.00 | 0.00 | 0.00 | 99 | 1015.9 |
| 20260901124230 | 78 | 124 | 0.0 | 0.0 | 0.00 | 0.00 | 0.00 | 99 | 1015.9 |
| 20260901123730 | 77 | 156 | 0.0 | 0.0 | 0.00 | 0.00 | 0.00 | 99 | 1015.8 |
| 20260901123225 | 77 | 166 | 0.0 | 0.0 | 0.00 | 0.00 | 0.00 | 99 | 1015.9 |
| 20260901122724 | 77 | 146 | 0.0 | 0.0 | 0.00 | 0.00 | 0.00 | 99 | 1015.7 |
| 20260901122219 | 77 | 128 | 0.0 | 0.0 | 0.00 | 0.00 | 0.00 | 99 | 1015.6 |
| 20260901121713 | 77 | 147 | 0.0 | 0.0 | 0.00 | 0.00 | 0.00 | 99 | 1015.7 |
| 20260901121208 | 77 | 170 | 0.0 | 0.0 | 0.00 | 0.00 | 0.00 | 99 | 1015.7 |
| 20260901120708 | 77 | 147 | 0.0 | 0.0 | 0.00 | 0.00 | 0.00 | 99 | 1015.4 |
| 20260901120203 | 77 | 153 | 0.0 | 0.0 | 0.00 | 0.00 | 0.00 | 99 | 1015.4 |
| 20260901115658 | 77 | 152 | 0.0 | 0.0 | 0.00 | 0.00 | 0.00 | 99 | 1015.6 |
| 20260901115154 | 76 | 170 | 0.0 | 0.0 | 0.00 | 0.00 | 0.00 | 99 | 1015.5 |
| 20260901114651 | 76 | 163 | 0.0 | 0.0 | 0.00 | 0.00 | 0.00 | 99 | 1015.4 |
| 20260901114150 | 76 | 165 | 0.0 | 0.0 | 0.00 | 0.00 | 0.00 | 99 | 1015.4 |
| 20260901113649 | 76 | 159 | 0.0 | 0.0 | 0.00 | 0.00 | 0.00 | 99 | 1015.4 |
| 20260901113145 | 76 | 161 | 0.0 | 0.0 | 0.00 | 0.00 | 0.00 | 99 | 1015.2 |
| 20260901112645 | 76 | 161 | 0.0 | 0.0 | 0.00 | 0.00 | 0.00 | 99 | 1015.4 |
| 20260901112144 | 76 | 161 | 0.0 | 0.0 | 0.00 | 0.00 | 0.00 | 99 | 1015.4 |
| 20260901111644 | 76 | 168 | 0.0 | 0.0 | 0.00 | 0.00 | 0.00 | 99 | 1015.5 |
| 20260901111138 | 76 | 179 | 0.0 | 0.0 | 0.00 | 0.00 | 0.00 | 99 | 1015.4 |
| 20260901110633 | 76 | 172 | 0.0 | 0.0 | 0.00 | 0.00 | 0.00 | 99 | 1015.2 |
| 20260901110128 | 76 | 179 | 0.0 | 0.0 | 0.00 | 0.00 | 0.00 | 99 | 1015.0 |
| 20260901105625 | 76 | 131 | 0.0 | 0.0 | 0.00 | 0.00 | 0.00 | 99 | 1015.2 |
| 20260901105124 | 76 | 161 | 0.0 | 0.0 | 0.00 | 0.00 | 0.00 | 99 | 1015.3 |
| 20260901104621 | 76 | 177 | 0.0 | 0.0 | 0.00 | 0.00 | 0.00 | 99 | 1015.1 |
| 20260901104115 | 76 | 127 | 0.0 | 0.0 | 0.00 | 0.00 | 0.00 | 99 | 1015.0 |
| 20260901103609 | 76 | 176 | 0.0 | 0.0 | 0.00 | 0.00 | 0.00 | 99 | 1015.0 |
| 20260901103105 | 76 | 161 | 0.0 | 0.0 | 0.00 | 0.00 | 0.00 | 99 | 1014.9 |
| 20260901102604 | 76 | 161 | 0.0 | 0.0 | 0.00 | 0.00 | 0.00 | 99 | 1014.8 |
| 20260901102059 | 76 | 176 | 0.0 | 0.0 | 0.00 | 0.00 | 0.00 | 99 | 1014.9 |
| 20260901101555 | 76 | 169 | 0.0 | 0.0 | 0.00 | 0.00 | 0.00 | 99 | 1014.8 |
| 20260901101054 | 76 | 161 | 0.0 | 0.0 | 0.00 | 0.00 | 0.00 | 99 | 1014.9 |
| 20260901100548 | 76 | 133 | 0.0 | 0.0 | 0.00 | 0.00 | 0.00 | 99 | 1014.7 |
| 20260901100048 | 76 | 176 | 0.0 | 0.0 | 0.00 | 0.00 | 0.00 | 99 | 1014.8 |
| 20260901095546 | 76 | 176 | 0.0 | 0.0 | 0.00 | 0.00 | 0.00 | 99 | 1014.8 |
| 20260901095044 | 75 | 147 | 0.0 | 0.0 | 0.00 | 0.00 | 0.00 | 99 | 1014.7 |
| 20260901094540 | 75 | 161 | 0.0 | 0.0 | 0.00 | 0.00 | 0.00 | 99 | 1014.5 |
| 20260901094039 | 75 | 176 | 0.0 | 0.0 | 0.00 | 0.00 | 0.00 | 99 | 1014.8 |
| 20260901093534 | 75 | 169 | 0.0 | 0.0 | 0.00 | 0.00 | 0.00 | 99 | 1014.9 |
| 20260901093028 | 75 | 169 | 0.0 | 0.0 | 0.00 | 0.00 | 0.00 | 99 | 1014.5 |
| 20260901092524 | 75 | 176 | 0.0 | 0.0 | 0.00 | 0.00 | 0.00 | 99 | 1014.6 |
| 20260901092020 | 75 | 169 | 0.0 | 0.0 | 0.00 | 0.00 | 0.00 | 99 | 1014.5 |
| 20260901091516 | 75 | 176 | 0.0 | 0.0 | 0.00 | 0.00 | 0.00 | 99 | 1014.5 |
| 20260901091016 | 75 | 170 | 0.0 | 0.0 | 0.00 | 0.00 | 0.00 | 99 | 1014.4 |
| 20260901090515 | 75 | 168 | 0.0 | 0.0 | 0.00 | 0.00 | 0.00 | 99 | 1014.5 |
| 20260901090011 | 75 | 174 | 0.0 | 0.0 | 0.00 | 0.00 | 0.00 | 99 | 1014.4 |
| 20260901085507 | 75 | 176 | 0.0 | 0.0 | 0.00 | 0.00 | 0.00 | 99 | 1014.1 |
| 20260901085003 | 75 | 172 | 0.0 | 0.0 | 0.00 | 0.00 | 0.00 | 99 | 1014.2 |
| 20260901084458 | 75 | 169 | 0.0 | 0.0 | 0.00 | 0.00 | 0.00 | 99 | 1014.3 |
| 20260901083955 | 75 | 161 | 0.0 | 0.0 | 0.00 | 0.00 | 0.00 | 99 | 1014.2 |
| 20260901083455 | 75 | 161 | 0.0 | 0.0 | 0.00 | 0.00 | 0.00 | 99 | 1014.1 |
| 20260901082952 | 75 | 161 | 0.0 | 0.0 | 0.00 | 0.00 | 0.00 | 99 | 1014.1 |
| 20260901082448 | 75 | 161 | 0.0 | 0.0 | 0.00 | 0.00 | 0.00 | 99 | 1014.3 |
| 20260901081943 | 75 | 161 | 0.0 | 0.0 | 0.00 | 0.00 | 0.00 | 99 | 1014.0 |
| 20260901081438 | 75 | 161 | 0.0 | 0.0 | 0.00 | 0.00 | 0.00 | 99 | 1014.3 |
| 20260901080933 | 75 | 161 | 0.0 | 0.0 | 0.00 | 0.00 | 0.00 | 99 | 1014.3 |
| 20260901080433 | 75 | 160 | 0.0 | 0.0 | 0.00 | 0.00 | 0.00 | 99 | 1014.4 |
| 20260901075932 | 75 | 160 | 0.0 | 0.0 | 0.00 | 0.00 | 0.00 | 99 | 1014.3 |
| 20260901075428 | 75 | 161 | 0.0 | 0.0 | 0.00 | 0.00 | 0.00 | 99 | 1014.3 |
| 20260901074927 | 75 | 161 | 0.0 | 0.0 | 0.00 | 0.00 | 0.00 | 99 | 1014.6 |
| 20260901074422 | 75 | 169 | 0.0 | 0.0 | 0.00 | 0.00 | 0.00 | 99 | 1014.4 |
| 20260901073917 | 75 | 169 | 0.0 | 0.0 | 0.00 | 0.00 | 0.00 | 99 | 1014.3 |
| 20260901073414 | 75 | 161 | 0.0 | 0.0 | 0.00 | 0.00 | 0.00 | 99 | 1014.5 |
| 20260901072909 | 75 | 169 | 0.0 | 0.0 | 0.00 | 0.00 | 0.00 | 99 | 1014.6 |
| 20260901072409 | 75 | 168 | 0.0 | 0.0 | 0.00 | 0.00 | 0.00 | 99 | 1014.6 |